PEGASUS DEB, 24817

Orbit data source: Space-Track

PEGASUS DEB, 24817 is space debris in LEO originally from a launch on Thu, 19 May 1994 UTC launched from the Air Force Western Test Range (AFWTR). Debris objects in space refer to the collection of defunct objects orbiting the Earth. Examples of debris include non-operational satellites, rocket bodies, and fragments generated from explosions, collisions, or faulty payload assembly.

Loading next visibility...
Identifier
24817, 1994-029ABU
Orbit
LEO
Country
Flag of USUS
Related business
Manufacturer
Unknown
Mission
Spacecraft
Bus & Motor
Unknown
Mass
Unknown
Launch date (UTC)
1994-05-19 (32 years ago)
Launch vehicle
Unknown
Launch site
Air Force Western Test Range (AFWTR)
Object type
Payload
Rocket body
Debris
Shape & HBR
Unknown shape, 0.1 m
Radar Cross Section
Medium (>0.1 m² and <1 m²)

Expand to show TLE details & history
Last TLE update: 2 days ago

TLE from 2 days ago
0 PEGASUS DEB
1 24817U 94029ABU 26171.48763669  .00003201  00000-0  77229-3 0  9998
2 24817  81.6899 355.4845 0359658  74.0164 318.6597 14.20234493521152
Epoch: 2026-06-20T11:42Z
TLE epoch observation values (Epoch: 2026-06-20T11:42:11.810Z)
Latitude
29.56749°
Longitude
-84.03888°
Altitude
637.951 km
Speed
7.641 km/s
True Right ascension
00h 00m 50s
True Declination
29° 25' 03"
Sunlit
Object was in daylight at epoch
Visualization orbit readout
Latitude
Unknown
Longitude
Unknown
Altitude
Unknown
Speed
Unknown
Apparent Right ascension
Unknown
Apparent Declination
Unknown
Sunlit
N/A
Visualization observer readout
Local Sidereal Time
00:51:02
Azimuth
Unknown
Elevation
Unknown
Doppler factor
Unknown
Orbital elements
Apogee altitude
1,080.642 km
Perigee altitude
562.746 km
Semi-major axis
7,199.831 km
Eccentricity
0.03597
Inclination
81.6899°
RAAN
355.4845°
Arg. of periapsis
74.0164°
True anomaly
315.84359°
Mean anomaly
318.6597°
Eccentric anomaly
317.2612°
Mean motion
3.55271 °/min
Orbital period
101.33 mins
BSTAR
0.00077229
Loading maneuver chart data...
Computing Atmospheric mass density...

Documentation

Showing up to 5 results
|